Location: Unspecified
(0.0000°N, 0.0000°E)
Time: 14:58:46
(UTC+02:00)

SWIFT - Visible Passes

Search period start: 26 May 2017 00:00
Search period end: 05 June 2017 00:00
Orbit: 547 x 563 km, 20.6° (Epoch: 25 May)

Date Brightness Start Highest point End Pass type
(mag) Time Alt. Az. Time Alt. Az. Time Alt. Az.
26 May 4.9 05:31:51 18° NE 05:31:51 18° NE 05:33:03 10° ENE visible
26 May 4.4 07:08:08 10° WNW 07:10:59 17° NNW 07:13:50 10° NNE visible
27 May 5.2 05:26:49 15° NE 05:26:49 15° NE 05:27:38 10° NE visible
27 May 4.7 07:03:44 10° NW 07:05:48 13° NNW 07:07:52 10° NNE visible
28 May 5.4 05:21:47 12° NE 05:21:47 12° NE 05:22:07 10° NE visible
28 May 5.0 07:00:09 10° NNW 07:00:39 10° NNW 07:01:10 10° N visible
04 Jun 4.9 21:45:08 10° SSW 21:45:18 11° SSW 21:45:18 11° SSW visible
